Weather History for Shreveport, LA

Change the Weather History Date:

Tuesday, September 17, 2013

  Actual Average Record
Temperature  
Mean Temperature 86 °F 77 °F  
Max Temperature 96 °F 88 °F 99 °F (2010)
Min Temperature 75 °F 65 °F 49 °F (1903)
Degree Days  
Heating Degree Days 0 0  
Month to date heating degree days 0 0  
Since 1 July heating degree days 0 0  
Cooling Degree Days 21 12  
Month to date cooling degree days 347 241  
Year to date cooling degree days 2392 2203  
Growing Degree Days 36 (Base 50)    
Moisture  
Dew Point 66 °F    
Average Humidity 58    
Maximum Humidity 74    
Minimum Humidity 41    
Precipitation  
Precipitation 0.00 in 0.09 in 6.16 in (1875)
Month to date precipitation 0.06 1.73  
Year to date precipitation 27.02 35.72  
Snow  
Snow 0.00 in - - ()
Month to date snowfall 0.0  
Since 1 July snowfall 0.0  
Since 1 September snowfall 0.0  
Snow Depth 0.00 in    
Sea Level Pressure  
Sea Level Pressure 30.02 in    
Wind  
Wind Speed 5 mph (East)    
Max Wind Speed 17 mph    
Max Gust Speed 25 mph    
Visibility 10 miles    
Events      
T = Trace of Precipitation, MM = Missing Value Source: NWS Daily Summary

Daily Weather History Graph

Daily Weather History Graph

Search for Another Location

Airport:

Trip Planner

Search our weather history database for the weather conditions in past years. The results will help you decide how hot, cold, wet, or windy it might be!

Date:

Astronomy

Sep. 17, 2013 Rise Set
Actual Time 7:00 AM CDT 7:18 PM CDT
Civil Twilight 6:35 AM CDT 7:42 PM CDT
Nautical Twilight 6:07 AM CDT 8:11 PM CDT
Astronomical Twilight 5:38 AM CDT 8:40 PM CDT
Moon 6:03 PM CDT (9/17) 5:00 AM CDT (9/17)
Length of Visible Light 13h 06m
Length of Day
12h 17m
Waxing Gibbous, 96% of the Moon is Illuminated
Sep 17
Waxing Gibbous
Sep 19
Full
Sep 26
Last Quarter
Oct 4
New
Oct 11
First Quarter

Hourly Weather History & Observations

Time (CDT) Temp. Heat Index Dew Point Humidity Pressure Visibility Wind Dir Wind Speed Gust Speed Precip Events Conditions
12:56 AM 81.0 °F 83.0 °F 66.0 °F 60% 30.03 in 10.0 mi Calm Calm - N/A   Mostly Cloudy
1:56 AM 81.0 °F 83.3 °F 66.9 °F 62% 30.04 in 10.0 mi ENE 6.9 mph - N/A   Mostly Cloudy
2:56 AM 80.1 °F 82.3 °F 66.9 °F 64% 30.04 in 10.0 mi ENE 4.6 mph - N/A   Mostly Cloudy
3:56 AM 79.0 °F - 66.9 °F 66% 30.03 in 10.0 mi SE 3.5 mph - N/A   Mostly Cloudy
4:56 AM 77.0 °F - 66.9 °F 71% 30.03 in 10.0 mi SE 3.5 mph - N/A   Mostly Cloudy
5:56 AM 75.9 °F - 66.0 °F 71% 30.04 in 10.0 mi ENE 3.5 mph - N/A   Mostly Cloudy
6:56 AM 75.0 °F - 64.0 °F 69% 30.05 in 10.0 mi East 3.5 mph - N/A   Mostly Cloudy
7:56 AM 77.0 °F - 62.1 °F 60% 30.07 in 10.0 mi Calm Calm - N/A   Mostly Cloudy
8:56 AM 79.0 °F - 61.0 °F 54% 30.08 in 10.0 mi East 3.5 mph - N/A   Mostly Cloudy
9:56 AM 81.0 °F 81.9 °F 62.1 °F 52% 30.08 in 10.0 mi Calm Calm - N/A   Mostly Cloudy
10:56 AM 84.9 °F 86.6 °F 64.9 °F 51% 30.09 in 10.0 mi East 5.8 mph - N/A   Mostly Cloudy
11:56 AM 87.1 °F 89.2 °F 66.0 °F 49% 30.08 in 10.0 mi Variable 5.8 mph - N/A   Mostly Cloudy
12:56 PM 91.0 °F 94.3 °F 66.9 °F 45% 30.05 in 10.0 mi Variable 6.9 mph - N/A   Mostly Cloudy
1:56 PM 93.9 °F 97.5 °F 66.9 °F 41% 30.02 in 10.0 mi ESE 8.1 mph - N/A   Mostly Cloudy
2:56 PM 93.9 °F 97.5 °F 66.9 °F 41% 29.99 in 10.0 mi Variable 6.9 mph - N/A   Mostly Cloudy
3:56 PM 93.0 °F 95.9 °F 66.0 °F 41% 29.96 in 10.0 mi ESE 9.2 mph - N/A   Mostly Cloudy
4:56 PM 93.0 °F 95.9 °F 66.0 °F 41% 29.95 in 10.0 mi East 9.2 mph - N/A   Mostly Cloudy
5:56 PM 91.9 °F 94.1 °F 64.9 °F 41% 29.95 in 10.0 mi ESE 8.1 mph - N/A   Mostly Cloudy
6:56 PM 89.1 °F 91.3 °F 66.0 °F 46% 29.96 in 10.0 mi East 8.1 mph - N/A   Mostly Cloudy
7:56 PM 86.0 °F 89.4 °F 68.0 °F 55% 29.97 in 10.0 mi ENE 5.8 mph - N/A   Mostly Cloudy
8:56 PM 84.9 °F 88.2 °F 68.0 °F 57% 29.99 in 10.0 mi East 4.6 mph - N/A   Mostly Cloudy
9:56 PM 84.0 °F 87.0 °F 68.0 °F 58% 29.99 in 10.0 mi Variable 3.5 mph - N/A   Mostly Cloudy
10:56 PM 82.9 °F 85.8 °F 68.0 °F 60% 29.99 in 10.0 mi ESE 3.5 mph - N/A   Scattered Clouds
11:56 PM 82.0 °F 84.9 °F 68.0 °F 62% 29.99 in 10.0 mi SE 3.5 mph - N/A   Mostly Cloudy